Simultaneous Nadir Overpasses (SNOs) Predictions

Prediction of SNOs between GOES-17 and NOAA-19 Satellite Orbit:

Table of predicted SNOs for the next 14.0 days since TLE Epoch: 5/18/2024
Index Date Time (GOES-17) GOES-17 Lat,Lon NOAA-19 Lat,Lon Distance(km) Time Diff (sec)
1 05/18/2024 16:02:13 0.01,-104.71 -0.63,-102.00 309.49 80
2 05/21/2024 04:21:50 -0.01,-104.71 -0.44,-106.67 223.85 80
3 05/22/2024 04:06:53 -0.01,-104.71 0.24,-103.69 116.77 80
4 05/23/2024 03:54:37 -0.01,-104.71 0.93,-100.70 457.16 80
5 05/24/2024 16:26:19 0.00,-104.71 0.83,-108.31 411.14 80
6 05/25/2024 16:16:43 -0.01,-104.71 0.16,-105.33 71.17 80
7 05/26/2024 16:01:47 -0.01,-104.70 -0.57,-102.35 268.86 80
8 05/29/2024 04:24:00 0.02,-104.69 -0.52,-107.00 264.50 80
9 05/30/2024 04:09:04 0.03,-104.69 0.19,-104.02 75.86 80
10 05/31/2024 03:56:47 0.03,-104.68 0.90,-101.04 416.37 80
